Weather History for Curacao, Curacao

Change the Weather History Date:

Friday, May 17, 2013

  Actual Average Record
Temperature  
Mean Temperature 83 °F -  
Max Temperature 87 °F 88 °F 93 °F (1999)
Min Temperature 79 °F 77 °F 73 °F (2011)
Cooling Degree Days 18    
Growing Degree Days 33 (Base 50)    
Moisture  
Dew Point 74 °F    
Average Humidity 73    
Maximum Humidity 79    
Minimum Humidity 62    
Precipitation  
Precipitation 0.00 in 0.03 in - ()
Sea Level Pressure  
Sea Level Pressure 29.94 in    
Wind  
Wind Speed 13 mph ()    
Max Wind Speed 18 mph    
Max Gust Speed 29 mph    
Visibility 7.2 miles    
Events      
Averages and records for this station are not official NWS values.
T = Trace of Precipitation, MM = Missing Value Source: Averaged Metar Reports

Daily Weather History Graph

Daily Weather History Graph

Search for Another Location

Airport:

Trip Planner

Search our weather history database for the weather conditions in past years. The results will help you decide how hot, cold, wet, or windy it might be!

Date:

Astronomy

May. 17, 2013 Rise Set
Actual Time 6:11 AM AST 6:53 PM AST
Civil Twilight 5:48 AM AST 7:16 PM AST
Nautical Twilight 5:22 AM AST 7:42 PM AST
Astronomical Twilight 4:55 AM AST 8:09 PM AST
Moon 12:12 PM AST (5/17) 12:07 AM AST (5/17)
Length of Visible Light 13h 27m
Length of Day
12h 42m
Waxing Crescent, 45% of the Moon is Illuminated
May 17
Waxing Crescent
May 18
First Quarter
May 25
Full
May 31
Last Quarter
Jun 8
New

Hourly Weather History & Observations

Time (AST) Temp. Heat Index Dew Point Humidity Pressure Visibility Wind Dir Wind Speed Gust Speed Precip Events Conditions
12:00 AM 80.6 °F 85.4 °F 73.4 °F 79% 29.95 in 6.2 mi ESE 13.8 mph - N/A   Scattered Clouds
1:00 AM 80.6 °F 85.4 °F 73.4 °F 79% 29.92 in 6.2 mi ESE 13.8 mph - N/A   Scattered Clouds
2:00 AM 81 °F - 74 °F 72% 29.91 in 12 mi ESE 12.7 mph - -   Haze
2:00 AM 80.6 °F 85.4 °F 73.4 °F 79% 29.92 in 6.2 mi ESE 12.7 mph - N/A   Scattered Clouds
3:00 AM 80.6 °F 85.4 °F 73.4 °F 79% 29.89 in 6.2 mi ESE 10.4 mph - N/A   Partly Cloudy
4:00 AM 80.6 °F 85.4 °F 73.4 °F 79% 29.89 in 6.2 mi ESE 12.7 mph - N/A   Partly Cloudy
5:00 AM 80 °F - 72 °F 71% 29.91 in 12 mi ESE 11.5 mph - -   Haze
5:00 AM 80.6 °F 84.6 °F 71.6 °F 74% 29.89 in 6.2 mi ESE 12.7 mph - N/A   Partly Cloudy
6:00 AM 80.6 °F 85.4 °F 73.4 °F 79% 29.92 in 6.2 mi ESE 11.5 mph - N/A   Partly Cloudy
7:00 AM 82.4 °F 88.2 °F 73.4 °F 74% 29.95 in 6.2 mi ESE 13.8 mph - N/A   Scattered Clouds
8:00 AM 83 °F - 72 °F 63% 29.96 in 12 mi ESE 16.1 mph - -   Haze
8:00 AM 84.2 °F 90.9 °F 73.4 °F 70% 29.95 in 6.2 mi ESE 16.1 mph - N/A   Scattered Clouds
9:00 AM 84.2 °F 90.9 °F 73.4 °F 70% 29.98 in 6.2 mi ESE 18.4 mph - N/A   Scattered Clouds
10:00 AM 86.0 °F 93.4 °F 73.4 °F 66% 29.98 in 6.2 mi East 17.3 mph - N/A   Scattered Clouds
11:00 AM 85 °F - 74 °F 63% 29.98 in 12 mi East 17.3 mph - -   Haze
11:00 AM 84.2 °F 90.9 °F 73.4 °F 70% 29.98 in 6.2 mi East 17.3 mph - N/A   Mostly Cloudy
12:00 PM 86.0 °F 95.1 °F 75.2 °F 70% 29.95 in 6.2 mi East 17.3 mph - N/A   Mostly Cloudy
1:00 PM 87.8 °F 97.6 °F 75.2 °F 66% 29.95 in 6.2 mi East 17.3 mph - N/A   Mostly Cloudy
2:00 PM 86.0 °F 93.4 °F 73.4 °F 66% 29.95 in 6.2 mi East 16.1 mph - N/A   Scattered Clouds
3:00 PM 87.8 °F 95.6 °F 73.4 °F 62% 29.92 in 6.2 mi East 16.1 mph 28.8 mph N/A   Partly Cloudy
4:00 PM 86.0 °F 93.4 °F 73.4 °F 66% 29.89 in 6.2 mi East 15.0 mph - N/A   Scattered Clouds
5:00 PM 86.0 °F 93.4 °F 73.4 °F 66% 29.89 in 6.2 mi East 17.3 mph - N/A   Partly Cloudy
6:00 PM 84.2 °F 92.3 °F 75.2 °F 74% 29.89 in 6.2 mi East 13.8 mph - N/A   Partly Cloudy
7:00 PM 82.4 °F 89.5 °F 75.2 °F 79% 29.92 in 6.2 mi East 12.7 mph - N/A   Partly Cloudy
8:00 PM 82.4 °F 89.5 °F 75.2 °F 79% 29.95 in 6.2 mi East 13.8 mph - N/A   Partly Cloudy
9:00 PM 82.4 °F 89.5 °F 75.2 °F 79% 29.95 in 6.2 mi East 16.1 mph - N/A   Partly Cloudy
10:00 PM 82.4 °F 89.5 °F 75.2 °F 79% 29.98 in 6.2 mi East 12.7 mph - N/A   Partly Cloudy
11:00 PM 82 °F - 75 °F 75% 29.99 in 12 mi East 13.8 mph - -   Haze
11:00 PM 82.4 °F 89.5 °F 75.2 °F 79% 29.98 in 6.2 mi East 13.8 mph - N/A   Scattered Clouds